This demonstration page uses our WeatherBlox Daily Observations layout. Learn more.

Left ArrowRight Arrow

39.12711, -84.51439

Hourly Observations for December 29, 2018

Temp ( °F °C ) Dew Point ( °F °C ) Humidity (%) Winds ( mph kmh ) Pressure ( in mb ) Visibility ( mi km ) Precip ( " mm )
12:53 am 00:53 Cloudy 36 2.2 26 -3.3 67 67 W 12 19 30.19 1022 10 16 0.00 0.00
1:53 am 01:53 Cloudy 36 2.2 27 -2.8 70 70 W 9 15 30.20 1023 10 16 0.00 0.00
2:53 am 02:53 Cloudy 36 2.2 26 -3.3 67 67 W 13 20 30.23 1024 10 16 0.00 0.00
3:53 am 03:53 Cloudy 36 2.2 27 -2.8 70 70 W 10 17 30.25 1024 10 16 0.00 0.00
4:53 am 04:53 Cloudy 36 2.2 27 -2.8 70 70 W 9 15 30.26 1025 10 16 0.00 0.00
5:53 am 05:53 Cloudy 35 1.7 26 -3.3 70 70 NW 9 15 30.29 1026 10 16 0.00 0.00
6:53 am 06:53 Cloudy 35 1.7 25 -3.9 67 67 W 9 15 30.32 1027 10 16 0.00 0.00
7:53 am 07:53 Cloudy 35 1.7 25 -3.9 67 67 VRB 5 7 30.35 1028 10 16 0.00 0.00
8:39 am 08:39 Cloudy 35 1.7 26 -3.3 70 70 WSW 7 11 30.39 1029 10 16 0.00 0.00
8:53 am 08:53 Cloudy 35 1.7 25 -3.9 67 67 WSW 7 11 30.37 1028 10 16 0.00 0.00
9:53 am 09:53 Cloudy 36 2.2 26 -3.3 67 67 SW 8 13 30.38 1029 10 16 0.00 0.00
10:43 am 10:43 Cloudy 36 2.2 26 -3.3 67 67 W 8 13 30.42 1030 10 16 0.00 0.00
10:53 am 10:53 Cloudy 36 2.2 25 -3.9 64 64 W 8 13 30.39 1029 10 16 0.00 0.00
11:53 am 11:53 Cloudy 36 2.2 25 -3.9 64 64 W 3 6 30.35 1028 10 16 0.00 0.00
12:53 pm 12:53 Cloudy 37 2.8 26 -3.3 65 65 WSW 5 7 30.32 1027 10 16 0.00 0.00
1:19 pm 13:19 Cloudy 37 2.8 25 -3.9 62 62 Calm 30.30 1026 10 16 0.00 0.00
1:53 pm 13:53 Cloudy 37 2.8 26 -3.3 65 65 Calm 30.32 1027 10 16 0.00 0.00
2:15 pm 14:15 Cloudy 37 2.8 26 -3.3 65 65 SSW 3 6 30.30 1026 10 16 0.00 0.00
2:53 pm 14:53 Cloudy 37 2.8 25 -3.9 62 62 Calm 30.32 1027 10 16 0.00 0.00
3:53 pm 15:53 Cloudy 37 2.8 25 -3.9 62 62 WSW 3 6 30.33 1027 10 16 0.00 0.00
4:53 pm 16:53 Cloudy 37 2.8 26 -3.3 65 65 SW 5 7 30.33 1027 10 16 0.00 0.00
5:53 pm 17:53 Cloudy 37 2.8 27 -2.8 67 67 S 5 7 30.32 1027 10 16 0.00 0.00
6:53 pm 18:53 Cloudy 36 2.2 26 -3.3 67 67 SSE 5 7 30.29 1026 10 16 0.00 0.00
7:53 pm 19:53 Cloudy 36 2.2 27 -2.8 70 70 SW 3 6 30.29 1026 10 16 0.00 0.00
8:53 pm 20:53 Cloudy 36 2.2 27 -2.8 70 70 S 3 6 30.28 1026 10 16 0.00 0.00
9:53 pm 21:53 Cloudy 35 1.7 28 -2.2 76 76 SSW 8 13 30.28 1026 10 16 0.00 0.00
10:53 pm 22:53 Mostly Cloudy 35 1.7 27 -2.8 72 72 WSW 8 13 30.29 1026 10 16 0.00 0.00
11:46 pm 23:46 Cloudy 35 1.7 27 -2.8 72 72 SSW 5 7 30.30 1026 10 16 0.00 0.00
11:53 pm 23:53 Cloudy 35 1.7 28 -2.2 76 76 SW 5 7 30.26 1025 10 16 0.00 0.00

Powered by AerisWeather